Regional Weather Roundup
Issued by NWS Sioux Falls, SD

Home | Current Version | Previous Version | Text Only | Print | Product List | Glossary On
Versions: 1 2 3 4 5 6 7 8 9 10 11 12 13 14 15 16 17 18 19 20 21 22 23 24 25 26 27 28 29 30 31 32 33 34 35 36 37 38 39 40 41 42 43 44 45 46 47 48 49 50
000
ASUS43 KFSD 291310
RWRFSD

WEATHER ROUNDUP FOR SE SOUTH DAKOTA/SW MINNESOTA/NW IOWA
NATIONAL WEATHER SERVICE SIOUX FALLS SD
800 AM CDT FRI MAY 29 2015

NOTE: "FAIR" INDICATES FEW OR NO CLOUDS BELOW 12,000 FEET WITH NO
SIGNIFICANT WEATHER AND OR OBSTRUCTIONS TO VISIBILITY.


SDZ038>040-050-052>070-291400-
SOUTHEAST SOUTH DAKOTA

CITY           SKY/WX    TMP DP  RH WIND       PRES   REMARKS
BROOKINGS      CLOUDY    63  59  88 N3        29.89S
CHAMBERLAIN    CLOUDY    60  58  94 N9        29.92R
HURON            N/A    N/A N/A N/A MISG      29.89R
MADISON        CLOUDY    63  63 100 NW10      29.88S
MITCHELL       CLOUDY    64  62  93 NW5       29.88R
SIOUX FALLS    LGT RAIN  64  63  96 NW5       29.88R FOG
WINNER         LGT RAIN  60  55  83 NW14      29.95R
YANKTON        CLOUDY    63  57  82 W6        29.88R
$$

MNZ071-072-080-081-089-090-097-098-291400-
SOUTHWEST MINNESOTA

CITY           SKY/WX    TMP DP  RH WIND       PRES   REMARKS
FAIRMONT       CLOUDY    63  57  82 SE7       29.89F
JACKSON        CLOUDY    63  63 100 E8        29.87F
LUVERNE        LGT RAIN  64  63  94 CALM      29.87R
MARSHALL       CLOUDY    64  57  77 N9        29.86R
MONTEVIDEO     CLOUDY    63  63 100 N9        29.90R
PIPESTONE      CLOUDY    64  63  94 SE3       29.87S
REDWOOD FALLS  CLOUDY    66  63  90 SW5       29.86R
TRACY          CLOUDY    66  64  91 SW9       29.85S
WINDOM         LGT RAIN  63  61  94 CALM      29.86F
WORTHINGTON    CLOUDY    63  61  94 CALM      29.87R
$$

IAZ001>003-012>014-020>022-031-032-NEZ013-014-SDZ071-291400-
NORTHWEST IOWA

CITY           SKY/WX    TMP DP  RH WIND       PRES   REMARKS
CHEROKEE       CLOUDY    65  64  99 S6        29.90R FOG
DENISON        CLOUDY    66  66 100 S8G20     29.89R FOG
ESTHERVILLE    CLOUDY    65  63  93 S13       29.89S
LE MARS        CLOUDY    66  64  94 S14       29.89S
ORANGE CITY    CLOUDY    64  61  88 S10       29.88R
SHELDON        CLOUDY    64  63  94 S13       29.88R
SIOUX CITY     CLOUDY    67  62  84 S12       29.89S
SPENCER        CLOUDY    66  64  93 S12       29.91R
STORM LAKE     CLOUDY    64  64 100 S14       29.92R FOG
$$

ABBREVIATIONS USED IN REMARKS
   TC - TEMPERATURE IN CELSIUS
  WCI - WIND CHILL INDEX
   HX - HEAT INDEX
  VSB - VISIBILITY




USA.gov is the U.S. government's official web portal to all federal, state and local government web resources and services.